User: anonymous   Login
Location: Austin, TX
(30.3000°N, 97.7500°W)
Time: 07:30:43
(UTC-05:00)
Language:

Cosmos 2082 Rocket - Orbit

View from above orbital plane
View from above orbital plane
View from above satellite
View from above satellite

Ground track
Ground track

The orbit data is extracted from the following two-line orbital elements,

1 20625U 90046B   14304.43770772  .00000312  00000-0  18699-3 0  8567
2 20625 071.0015 003.3609 0012361 130.0880 313.8917 14.14542836262117
Epoch (UTC): 31 October 2014 10:30:17
Eccentricity: 0.0012361
inclination: 71.0015°
perigee height: 835 km
apogee height: 853 km
right ascension of ascending node: 3.3609°
argument of perigee: 130.0880°
revolutions per day: 14.14542836
mean anomaly at epoch: 313.8917°
orbit number at epoch: 26211

The dashed part of the orbit path shows where the satellite is in the earth's shadow,  

DLR